This is the latest recevied weather packets stored in our database for station/object KF0JHJ. If no packets are shown the sender has not sent any weather packets the latest 10 day(s).
| Time | Temp. | Humidity | Pressure | Rain* | Wind** | Luminosity | Snow |
|---|---|---|---|---|---|---|---|
| 1777833410 | 21.11° C | 35% | 1005 hPa | - | - | 680 W/m² | - |
| 1777833108 | 21.11° C | 34% | 1005 hPa | - | - | 689 W/m² | - |
| 1777832806 | 21.11° C | 36% | 1005.2 hPa | - | - | 669 W/m² | - |
| 1777832504 | 21.11° C | 36% | 1005.3 hPa | - | - | 674 W/m² | - |
| 1777832200 | 20.56° C | 36% | 1005 hPa | - | - | 681 W/m² | - |
| 1777831897 | 20.56° C | 35% | 1005.2 hPa | - | - | 688 W/m² | - |
| 1777831594 | 20.56° C | 36% | 1005.3 hPa | - | - | 657 W/m² | - |
| 1777831292 | 20° C | 36% | 1005.2 hPa | - | - | 636 W/m² | - |
| 1777830989 | 20° C | 35% | 1005.6 hPa | - | - | 705 W/m² | - |
| 1777830686 | 20° C | 36% | 1005.6 hPa | - | - | 676 W/m² | - |
| 1777830382 | 20° C | 35% | 1005.5 hPa | - | - | 686 W/m² | - |
| 1777830080 | 20° C | 37% | 1005.7 hPa | - | - | 702 W/m² | - |
| 1777829774 | 20° C | 38% | 1005.5 hPa | - | - | 549 W/m² | - |
| 1777829471 | 19.44° C | 38% | 1005.5 hPa | - | - | 613 W/m² | - |
| 1777829168 | 20° C | 40% | 1005.4 hPa | - | - | 675 W/m² | - |
| 1777828866 | 20° C | 39% | 1005.5 hPa | - | - | 694 W/m² | - |
| 1777828562 | 20° C | 39% | 1005.7 hPa | - | - | 678 W/m² | - |
| 1777828259 | 20° C | 38% | 1005.4 hPa | - | - | 689 W/m² | - |
| 1777827955 | 19.44° C | 39% | 1005.5 hPa | - | - | 431 W/m² | - |
| 1777827653 | 19.44° C | 39% | 1005.7 hPa | - | - | 371 W/m² | - |
| 1777827350 | 19.44° C | 39% | 1005.5 hPa | - | - | 591 W/m² | - |
| 1777827046 | 19.44° C | 41% | 1005.8 hPa | - | - | 659 W/m² | - |
| 1777826743 | 18.89° C | 40% | 1005.7 hPa | - | - | 708 W/m² | - |
| 1777826440 | 18.89° C | 39% | 1005.8 hPa | - | - | 708 W/m² | - |
| 1777826137 | 18.89° C | 43% | 1005.5 hPa | - | - | 702 W/m² | - |
* Rain since midnight (hover to see other rain measurements)
** Current wind speed in m/s (hover to see current wind gust speed)